START_TIME,STEP,MOV.,P1,t_acc.,E44,t_acc.,A3,t_acc.,P10,t_acc.
1979-03-08 22:23:09.840 ,0,0,0.,1.2,13.,1.2,0.,1.2,0.,1.2
1979-03-08 22:23:11.040 ,0,0,1.,1.2,13.,1.2,0.,1.2,0.,1.2
1979-03-08 22:23:12.240 ,0,0,0.,1.2,7.,1.2,0.,1.2,0.,1.2
1979-03-08 22:23:13.440 ,0,0,0.,1.2,17.,1.2,0.,1.2,0.,1.2
1979-03-08 22:23:14.640 ,0,0,0.,1.2,6.,1.2,0.,1.2,0.,1.2
1979-03-08 22:23:15.840 ,0,0,0.,1.2,21.,1.2,0.,1.2,0.,1.2
1979-03-08 22:23:17.040 ,0,0,0.,1.2,12.,1.2,0.,1.2,0.,1.2
1979-03-08 22:23:18.240 ,0,0,1.,1.2,12.,1.2,0.,1.2,0.,1.2
1979-03-08 22:23:19.440 ,0,0,0.,1.2,9.,1.2,0.,1.2,0.,1.2
1979-03-08 22:23:20.640 ,0,0,0.,1.2,15.,1.2,0.,1.2,0.,1.2
1979-03-08 22:23:21.840 ,0,0,0.,1.2,9.,1.2,0.,1.2,0.,1.2
1979-03-08 22:23:23.040 ,0,0,1.,1.2,7.,1.2,0.,1.2,0.,1.2
1979-03-08 22:23:24.240 ,0,0,1.,1.2,11.,1.2,0.,1.2,0.,1.2
1979-03-08 22:23:25.440 ,0,0,0.,1.2,12.,1.2,0.,1.2,0.,1.2
1979-03-08 22:23:26.640 ,0,0,0.,1.2,18.,1.2,1.,1.2,0.,1.2
1979-03-08 22:23:27.840 ,0,0,0.,1.2,11.,1.2,0.,1.2,0.,1.2
1979-03-08 22:23:29.040 ,0,0,1.,1.2,11.,1.2,0.,1.2,1.,1.2
1979-03-08 22:23:30.240 ,0,0,0.,1.2,11.,1.2,0.,1.2,0.,1.2
1979-03-08 22:23:31.440 ,0,0,0.,1.2,12.,1.2,0.,1.2,0.,1.2
1979-03-08 22:23:32.640 ,0,0,1.,1.2,12.,1.2,0.,1.2,0.,1.2
1979-03-08 22:23:33.240 ,0,0,0.,1.2,11.,1.2,0.,1.2,0.,1.2
1979-03-08 22:23:34.440 ,0,0,0.,1.2,15.,1.2,0.,1.2,0.,1.2
1979-03-08 22:23:35.640 ,0,0,0.,1.2,13.,1.2,0.,1.2,0.,1.2
1979-03-08 22:23:36.840 ,0,0,0.,1.2,11.,1.2,0.,1.2,1.,1.2
1979-03-08 22:23:38.040 ,0,0,0.,1.2,10.,1.2,0.,1.2,0.,1.2
1979-03-08 22:23:39.240 ,0,0,0.,1.2,7.,1.2,0.,1.2,0.,1.2
1979-03-08 22:23:40.440 ,0,0,0.,1.2,6.,1.2,1.,1.2,0.,1.2
1979-03-08 22:23:41.640 ,0,0,0.,1.2,15.,1.2,0.,1.2,0.,1.2
1979-03-08 22:23:42.840 ,0,0,0.,1.2,10.,1.2,0.,1.2,1.,1.2
1979-03-08 22:23:44.040 ,0,0,0.,1.2,13.,1.2,0.,1.2,1.,1.2
1979-03-08 22:23:45.240 ,0,0,0.,1.2,13.,1.2,0.,1.2,0.,1.2
1979-03-08 22:23:46.440 ,0,0,0.,1.2,8.,1.2,0.,1.2,0.,1.2
1979-03-08 22:23:47.640 ,0,0,0.,1.2,13.,1.2,0.,1.2,0.,1.2
1979-03-08 22:23:48.840 ,0,0,0.,1.2,12.,1.2,0.,1.2,0.,1.2
1979-03-08 22:23:50.040 ,0,0,1.,1.2,10.,1.2,0.,1.2,0.,1.2
1979-03-08 22:23:51.240 ,0,0,0.,1.2,12.,1.2,0.,1.2,0.,1.2
1979-03-08 22:23:52.440 ,0,0,0.,1.2,7.,1.2,0.,1.2,2.,1.2
1979-03-08 22:23:53.640 ,0,0,1.,1.2,6.,1.2,0.,1.2,0.,1.2
1979-03-08 22:23:54.840 ,0,0,0.,1.2,8.,1.2,0.,1.2,0.,1.2
1979-03-08 22:23:56.040 ,0,0,1.,1.2,13.,1.2,0.,1.2,0.,1.2
1979-03-08 22:23:57.240 ,1,0,1.,1.2,7.,1.2,0.,1.2,0.,1.2
1979-03-08 22:23:58.440 ,1,0,0.,1.2,8.,1.2,0.,1.2,0.,1.2
1979-03-08 22:23:59.640 ,1,0,1.,1.2,5.,1.2,0.,1.2,0.,1.2
1979-03-08 22:24:00.840 ,1,0,0.,1.2,7.,1.2,0.,1.2,1.,1.2
1979-03-08 22:24:02.040 ,1,0,0.,1.2,9.,1.2,0.,1.2,0.,1.2
1979-03-08 22:24:03.240 ,1,0,1.,1.2,28.,1.2,0.,1.2,0.,1.2
1979-03-08 22:24:04.440 ,1,0,1.,1.2,10.,1.2,0.,1.2,1.,1.2
1979-03-08 22:24:05.640 ,1,0,2.,1.2,10.,1.2,0.,1.2,0.,1.2
1979-03-08 22:24:06.840 ,1,0,1.,1.2,13.,1.2,0.,1.2,0.,1.2
1979-03-08 22:24:08.040 ,1,0,1.,1.2,5.,1.2,0.,1.2,0.,1.2
1979-03-08 22:24:09.240 ,1,0,0.,1.2,18.,1.2,0.,1.2,0.,1.2
1979-03-08 22:24:10.440 ,1,0,0.,1.2,11.,1.2,0.,1.2,0.,1.2
1979-03-08 22:24:11.640 ,1,0,0.,1.2,7.,1.2,1.,1.2,1.,1.2
1979-03-08 22:24:12.840 ,1,0,1.,1.2,14.,1.2,0.,1.2,0.,1.2
1979-03-08 22:24:14.040 ,1,0,0.,1.2,9.,1.2,0.,1.2,0.,1.2
1979-03-08 22:24:15.240 ,1,0,0.,1.2,20.,1.2,0.,1.2,0.,1.2
1979-03-08 22:24:16.440 ,1,0,0.,1.2,7.,1.2,0.,1.2,0.,1.2
1979-03-08 22:24:17.640 ,1,0,0.,1.2,13.,1.2,0.,1.2,1.,1.2
1979-03-08 22:24:18.840 ,1,0,0.,1.2,15.,1.2,0.,1.2,0.,1.2
1979-03-08 22:24:20.040 ,1,0,0.,1.2,12.,1.2,0.,1.2,1.,1.2
1979-03-08 22:24:21.240 ,2,0,0.,1.2,11.,1.2,0.,1.2,0.,1.2
1979-03-08 22:24:22.440 ,2,0,0.,1.2,12.,1.2,0.,1.2,0.,1.2
1979-03-08 22:24:23.640 ,2,0,0.,1.2,9.,1.2,0.,1.2,0.,1.2
1979-03-08 22:24:24.840 ,2,0,2.,1.2,14.,1.2,1.,1.2,1.,1.2
1979-03-08 22:24:26.040 ,2,0,0.,1.2,11.,1.2,0.,1.2,0.,1.2
1979-03-08 22:24:27.240 ,2,0,1.,1.2,22.,1.2,0.,1.2,0.,1.2
1979-03-08 22:24:28.440 ,2,0,0.,1.2,13.,1.2,0.,1.2,0.,1.2
1979-03-08 22:24:29.640 ,2,0,1.,1.2,15.,1.2,0.,1.2,0.,1.2
1979-03-08 22:24:30.840 ,2,0,2.,1.2,12.,1.2,0.,1.2,0.,1.2
1979-03-08 22:24:32.040 ,2,0,3.,1.2,11.,1.2,1.,1.2,0.,1.2
1979-03-08 22:24:33.240 ,2,0,1.,1.2,11.,1.2,0.,1.2,2.,1.2
1979-03-08 22:24:34.440 ,2,0,0.,1.2,17.,1.2,0.,1.2,0.,1.2
1979-03-08 22:24:35.640 ,2,0,0.,1.2,9.,1.2,0.,1.2,0.,1.2
1979-03-08 22:24:36.840 ,2,0,1.,1.2,8.,1.2,0.,1.2,1.,1.2
1979-03-08 22:24:38.040 ,2,0,0.,1.2,9.,1.2,0.,1.2,0.,1.2
1979-03-08 22:24:39.240 ,2,0,0.,1.2,12.,1.2,0.,1.2,0.,1.2
1979-03-08 22:24:40.440 ,2,0,0.,1.2,14.,1.2,0.,1.2,0.,1.2
1979-03-08 22:24:41.640 ,2,0,1.,1.2,14.,1.2,0.,1.2,0.,1.2
1979-03-08 22:24:42.840 ,2,0,0.,1.2,11.,1.2,0.,1.2,0.,1.2
1979-03-08 22:24:44.040 ,2,0,0.,1.2,10.,1.2,0.,1.2,1.,1.2
1979-03-08 22:24:45.240 ,3,0,0.,1.2,9.,1.2,0.,1.2,0.,1.2
1979-03-08 22:24:46.440 ,3,0,0.,1.2,7.,1.2,0.,1.2,0.,1.2
1979-03-08 22:24:47.640 ,3,0,1.,1.2,16.,1.2,0.,1.2,0.,1.2
1979-03-08 22:24:48.840 ,3,0,0.,1.2,9.,1.2,0.,1.2,0.,1.2
1979-03-08 22:24:50.040 ,3,0,1.,1.2,9.,1.2,0.,1.2,0.,1.2
1979-03-08 22:24:51.240 ,3,0,0.,1.2,18.,1.2,0.,1.2,1.,1.2
1979-03-08 22:24:52.440 ,3,0,0.,1.2,9.,1.2,0.,1.2,0.,1.2
1979-03-08 22:24:53.640 ,3,0,0.,1.2,7.,1.2,0.,1.2,0.,1.2
1979-03-08 22:24:54.840 ,3,0,0.,1.2,5.,1.2,1.,1.2,0.,1.2
1979-03-08 22:24:56.040 ,3,0,1.,1.2,11.,1.2,0.,1.2,0.,1.2
1979-03-08 22:24:57.240 ,3,0,0.,1.2,6.,1.2,0.,1.2,0.,1.2
1979-03-08 22:24:58.440 ,3,0,0.,1.2,5.,1.2,0.,1.2,1.,1.2
1979-03-08 22:24:59.640 ,3,0,0.,1.2,7.,1.2,0.,1.2,0.,1.2
1979-03-08 22:25:00.840 ,3,0,0.,1.2,3.,1.2,0.,1.2,0.,1.2
1979-03-08 22:25:02.040 ,3,0,0.,1.2,15.,1.2,0.,1.2,0.,1.2
1979-03-08 22:25:03.240 ,3,0,0.,1.2,9.,1.2,0.,1.2,0.,1.2
1979-03-08 22:25:04.440 ,3,0,0.,1.2,10.,1.2,0.,1.2,0.,1.2
1979-03-08 22:25:05.640 ,3,0,1.,1.2,6.,1.2,0.,1.2,0.,1.2
1979-03-08 22:25:06.840 ,3,0,0.,1.2,9.,1.2,0.,1.2,1.,1.2
1979-03-08 22:25:08.040 ,3,0,0.,1.2,4.,1.2,0.,1.2,0.,1.2
1979-03-08 22:25:09.240 ,4,0,0.,1.2,6.,1.2,0.,1.2,0.,1.2
1979-03-08 22:25:10.440 ,4,0,0.,1.2,6.,1.2,0.,1.2,0.,1.2
1979-03-08 22:25:11.640 ,4,0,0.,1.2,5.,1.2,0.,1.2,0.,1.2
1979-03-08 22:25:12.840 ,4,0,1.,1.2,8.,1.2,0.,1.2,0.,1.2
1979-03-08 22:25:14.040 ,4,0,0.,1.2,9.,1.2,0.,1.2,1.,1.2
1979-03-08 22:25:15.240 ,4,0,0.,1.2,14.,1.2,0.,1.2,1.,1.2
1979-03-08 22:25:16.440 ,4,0,0.,1.2,9.,1.2,0.,1.2,0.,1.2
1979-03-08 22:25:17.640 ,4,0,1.,1.2,13.,1.2,1.,1.2,0.,1.2
1979-03-08 22:25:18.840 ,4,0,1.,1.2,9.,1.2,0.,1.2,2.,1.2
1979-03-08 22:25:20.040 ,4,0,1.,1.2,11.,1.2,0.,1.2,0.,1.2
1979-03-08 22:25:21.240 ,4,0,0.,1.2,16.,1.2,0.,1.2,0.,1.2
1979-03-08 22:25:22.440 ,4,0,1.,1.2,13.,1.2,0.,1.2,0.,1.2
1979-03-08 22:25:23.640 ,4,0,0.,1.2,7.,1.2,1.,1.2,0.,1.2
1979-03-08 22:25:24.840 ,4,0,0.,1.2,9.,1.2,0.,1.2,0.,1.2
1979-03-08 22:25:26.040 ,4,0,0.,1.2,8.,1.2,0.,1.2,0.,1.2
1979-03-08 22:25:27.240 ,4,0,0.,1.2,9.,1.2,0.,1.2,0.,1.2
1979-03-08 22:25:28.440 ,4,0,2.,1.2,12.,1.2,0.,1.2,0.,1.2
1979-03-08 22:25:29.640 ,4,0,0.,1.2,6.,1.2,0.,1.2,0.,1.2
1979-03-08 22:25:30.840 ,4,0,0.,1.2,11.,1.2,0.,1.2,0.,1.2
1979-03-08 22:25:32.040 ,4,0,0.,1.2,8.,1.2,0.,1.2,0.,1.2
1979-03-08 22:25:33.240 ,5,0,0.,1.2,15.,1.2,0.,1.2,0.,1.2
1979-03-08 22:25:34.440 ,5,0,0.,1.2,9.,1.2,0.,1.2,0.,1.2
1979-03-08 22:25:35.640 ,5,0,0.,1.2,13.,1.2,0.,1.2,1.,1.2
1979-03-08 22:25:36.840 ,5,0,1.,1.2,14.,1.2,0.,1.2,0.,1.2
1979-03-08 22:25:38.040 ,5,0,0.,1.2,8.,1.2,0.,1.2,0.,1.2
1979-03-08 22:25:39.240 ,5,0,0.,1.2,15.,1.2,0.,1.2,1.,1.2
1979-03-08 22:25:40.440 ,5,0,0.,1.2,9.,1.2,0.,1.2,0.,1.2
1979-03-08 22:25:41.640 ,5,0,0.,1.2,10.,1.2,0.,1.2,2.,1.2
1979-03-08 22:25:42.840 ,5,0,1.,1.2,17.,1.2,0.,1.2,0.,1.2
1979-03-08 22:25:44.040 ,5,0,0.,1.2,9.,1.2,0.,1.2,0.,1.2
1979-03-08 22:25:45.240 ,5,0,0.,1.2,10.,1.2,0.,1.2,0.,1.2
1979-03-08 22:25:46.440 ,5,0,0.,1.2,15.,1.2,0.,1.2,0.,1.2
1979-03-08 22:25:47.640 ,5,0,0.,1.2,14.,1.2,0.,1.2,0.,1.2
1979-03-08 22:25:48.840 ,5,0,0.,1.2,10.,1.2,0.,1.2,0.,1.2
1979-03-08 22:25:50.040 ,5,0,0.,1.2,12.,1.2,0.,1.2,0.,1.2
1979-03-08 22:25:51.240 ,5,0,1.,1.2,17.,1.2,0.,1.2,0.,1.2
1979-03-08 22:25:52.440 ,5,0,0.,1.2,14.,1.2,0.,1.2,0.,1.2
1979-03-08 22:25:53.640 ,5,0,0.,1.2,11.,1.2,0.,1.2,1.,1.2
1979-03-08 22:25:54.840 ,5,0,0.,1.2,13.,1.2,0.,1.2,0.,1.2
1979-03-08 22:25:56.040 ,5,0,0.,1.2,16.,1.2,0.,1.2,0.,1.2
1979-03-08 22:25:57.240 ,6,0,0.,1.2,15.,1.2,0.,1.2,0.,1.2
1979-03-08 22:25:58.440 ,6,0,0.,1.2,7.,1.2,0.,1.2,1.,1.2
1979-03-08 22:25:59.640 ,6,0,0.,1.2,13.,1.2,0.,1.2,0.,1.2
1979-03-08 22:26:00.840 ,6,0,0.,1.2,16.,1.2,1.,1.2,0.,1.2
1979-03-08 22:26:02.040 ,6,0,0.,1.2,14.,1.2,0.,1.2,0.,1.2
1979-03-08 22:26:03.240 ,6,0,1.,1.2,26.,1.2,0.,1.2,0.,1.2
1979-03-08 22:26:04.440 ,6,0,0.,1.2,20.,1.2,0.,1.2,0.,1.2
1979-03-08 22:26:05.640 ,6,0,1.,1.2,8.,1.2,0.,1.2,1.,1.2
1979-03-08 22:26:06.840 ,6,0,1.,1.2,17.,1.2,0.,1.2,0.,1.2
1979-03-08 22:26:08.040 ,6,0,0.,1.2,15.,1.2,0.,1.2,0.,1.2
1979-03-08 22:26:09.240 ,6,0,0.,1.2,15.,1.2,0.,1.2,0.,1.2
1979-03-08 22:26:10.440 ,6,0,1.,1.2,12.,1.2,0.,1.2,1.,1.2
1979-03-08 22:26:11.640 ,6,0,0.,1.2,9.,1.2,0.,1.2,1.,1.2
1979-03-08 22:26:12.840 ,6,0,2.,1.2,16.,1.2,0.,1.2,0.,1.2
1979-03-08 22:26:14.040 ,6,0,0.,1.2,14.,1.2,0.,1.2,0.,1.2
1979-03-08 22:26:15.240 ,6,0,0.,1.2,18.,1.2,0.,1.2,0.,1.2
1979-03-08 22:26:16.440 ,6,0,0.,1.2,9.,1.2,0.,1.2,0.,1.2
1979-03-08 22:26:17.640 ,6,0,0.,1.2,11.,1.2,0.,1.2,0.,1.2
1979-03-08 22:26:18.840 ,6,0,1.,1.2,13.,1.2,1.,1.2,0.,1.2
1979-03-08 22:26:20.040 ,6,0,0.,1.2,10.,1.2,0.,1.2,0.,1.2
1979-03-08 22:26:21.240 ,7,0,1.,1.2,8.,1.2,0.,1.2,1.,1.2
1979-03-08 22:26:22.440 ,7,0,0.,1.2,16.,1.2,0.,1.2,0.,1.2
1979-03-08 22:26:23.640 ,7,0,0.,1.2,10.,1.2,1.,1.2,0.,1.2
1979-03-08 22:26:24.840 ,7,0,0.,1.2,14.,1.2,0.,1.2,1.,1.2
1979-03-08 22:26:26.040 ,7,0,0.,1.2,13.,1.2,0.,1.2,0.,1.2
1979-03-08 22:26:27.240 ,7,0,0.,1.2,25.,1.2,3.,1.2,0.,1.2
1979-03-08 22:26:28.440 ,7,0,0.,1.2,8.,1.2,4.,1.2,0.,1.2
1979-03-08 22:26:29.640 ,7,0,1.,1.2,12.,1.2,8.,1.2,0.,1.2
1979-03-08 22:26:30.840 ,7,0,0.,1.2,15.,1.2,7.,1.2,0.,1.2
1979-03-08 22:26:32.040 ,7,0,0.,1.2,8.,1.2,4.,1.2,0.,1.2
1979-03-08 22:26:33.240 ,7,0,0.,1.2,10.,1.2,3.,1.2,0.,1.2
1979-03-08 22:26:34.440 ,7,0,0.,1.2,9.,1.2,6.,1.2,0.,1.2
1979-03-08 22:26:35.640 ,7,0,0.,1.2,17.,1.2,8.,1.2,0.,1.2
1979-03-08 22:26:36.840 ,7,0,0.,1.2,5.,1.2,5.,1.2,0.,1.2
1979-03-08 22:26:38.040 ,7,0,0.,1.2,14.,1.2,5.,1.2,0.,1.2
1979-03-08 22:26:39.240 ,7,0,0.,1.2,7.,1.2,2.,1.2,0.,1.2
1979-03-08 22:26:40.440 ,7,0,0.,1.2,7.,1.2,9.,1.2,0.,1.2
1979-03-08 22:26:41.640 ,7,0,0.,1.2,9.,1.2,4.,1.2,0.,1.2
1979-03-08 22:26:42.840 ,7,0,0.,1.2,9.,1.2,3.,1.2,0.,1.2
1979-03-08 22:26:44.040 ,7,0,0.,1.2,19.,1.2,6.,1.2,0.,1.2
1979-03-08 22:26:45.240 ,7,0,0.,1.2,9.,1.2,10.,1.2,0.,1.2
1979-03-08 22:26:46.440 ,7,0,0.,1.2,13.,1.2,7.,1.2,0.,1.2
1979-03-08 22:26:47.640 ,7,0,0.,1.2,10.,1.2,8.,1.2,0.,1.2
1979-03-08 22:26:48.840 ,7,0,0.,1.2,11.,1.2,2.,1.2,0.,1.2
1979-03-08 22:26:50.040 ,7,0,0.,1.2,16.,1.2,2.,1.2,0.,1.2
1979-03-08 22:26:51.240 ,7,0,,0,,0,,0,,0
1979-03-08 22:26:52.440 ,7,0,0.,1.2,8.,1.2,8.,1.2,0.,1.2
1979-03-08 22:26:53.640 ,7,0,0.,1.2,6.,1.2,7.,1.2,0.,1.2
1979-03-08 22:26:54.840 ,7,0,0.,1.2,9.,1.2,6.,1.2,0.,1.2
1979-03-08 22:26:56.040 ,7,0,0.,1.2,9.,1.2,2.,1.2,0.,1.2
1979-03-08 22:26:57.240 ,7,0,0.,1.2,10.,1.2,5.,1.2,0.,1.2
1979-03-08 22:26:58.440 ,7,0,0.,1.2,9.,1.2,1.,1.2,0.,1.2
1979-03-08 22:26:59.640 ,7,0,0.,1.2,8.,1.2,2.,1.2,0.,1.2
1979-03-08 22:27:00.840 ,7,0,0.,1.2,12.,1.2,3.,1.2,0.,1.2
1979-03-08 22:27:02.040 ,7,0,0.,1.2,13.,1.2,6.,1.2,0.,1.2
1979-03-08 22:27:03.240 ,7,0,0.,1.2,17.,1.2,12.,1.2,0.,1.2
1979-03-08 22:27:04.440 ,7,0,0.,1.2,17.,1.2,4.,1.2,0.,1.2
1979-03-08 22:27:05.640 ,7,0,0.,1.2,20.,1.2,6.,1.2,0.,1.2
1979-03-08 22:27:06.840 ,7,0,1.,1.2,13.,1.2,2.,1.2,0.,1.2
1979-03-08 22:27:08.040 ,7,0,0.,1.2,12.,1.2,6.,1.2,0.,1.2
1979-03-08 22:27:09.240 ,6,0,0.,1.2,8.,1.2,8.,1.2,0.,1.2
1979-03-08 22:27:10.440 ,6,0,0.,1.2,12.,1.2,4.,1.2,0.,1.2
1979-03-08 22:27:11.640 ,6,0,0.,1.2,13.,1.2,5.,1.2,0.,1.2
1979-03-08 22:27:12.840 ,6,0,0.,1.2,13.,1.2,6.,1.2,0.,1.2
1979-03-08 22:27:14.040 ,6,0,0.,1.2,3.,1.2,7.,1.2,0.,1.2
1979-03-08 22:27:15.240 ,6,0,0.,1.2,48.,1.2,3.,1.2,0.,1.2
1979-03-08 22:27:16.440 ,6,0,0.,1.2,14.,1.2,0.,1.2,0.,1.2
1979-03-08 22:27:17.640 ,6,0,2.,1.2,11.,1.2,0.,1.2,0.,1.2
1979-03-08 22:27:18.840 ,6,0,0.,1.2,11.,1.2,0.,1.2,0.,1.2
1979-03-08 22:27:20.040 ,6,0,0.,1.2,17.,1.2,0.,1.2,0.,1.2
1979-03-08 22:27:21.240 ,6,0,1.,1.2,8.,1.2,0.,1.2,0.,1.2
1979-03-08 22:27:22.440 ,6,0,0.,1.2,23.,1.2,0.,1.2,0.,1.2
1979-03-08 22:27:23.640 ,6,0,0.,1.2,12.,1.2,0.,1.2,1.,1.2
1979-03-08 22:27:24.840 ,6,0,0.,1.2,8.,1.2,0.,1.2,0.,1.2
1979-03-08 22:27:26.040 ,6,0,1.,1.2,16.,1.2,0.,1.2,0.,1.2
1979-03-08 22:27:27.240 ,6,0,0.,1.2,8.,1.2,0.,1.2,0.,1.2
1979-03-08 22:27:28.440 ,6,0,0.,1.2,12.,1.2,0.,1.2,3.,1.2
1979-03-08 22:27:29.640 ,6,0,0.,1.2,10.,1.2,1.,1.2,0.,1.2
1979-03-08 22:27:30.840 ,6,0,0.,1.2,15.,1.2,2.,1.2,0.,1.2
1979-03-08 22:27:32.040 ,6,0,0.,1.2,15.,1.2,0.,1.2,0.,1.2
1979-03-08 22:27:33.240 ,5,0,1.,1.2,12.,1.2,1.,1.2,0.,1.2
1979-03-08 22:27:34.440 ,5,0,0.,1.2,13.,1.2,0.,1.2,1.,1.2
1979-03-08 22:27:35.640 ,5,0,0.,1.2,10.,1.2,0.,1.2,1.,1.2
1979-03-08 22:27:36.840 ,5,0,0.,1.2,14.,1.2,0.,1.2,1.,1.2
1979-03-08 22:27:38.040 ,5,0,0.,1.2,19.,1.2,0.,1.2,0.,1.2
1979-03-08 22:27:39.240 ,5,0,0.,1.2,31.,1.2,0.,1.2,1.,1.2
1979-03-08 22:27:40.440 ,5,0,1.,1.2,12.,1.2,1.,1.2,0.,1.2
1979-03-08 22:27:41.640 ,5,0,1.,1.2,12.,1.2,0.,1.2,0.,1.2
1979-03-08 22:27:42.840 ,5,0,0.,1.2,12.,1.2,0.,1.2,0.,1.2
1979-03-08 22:27:44.040 ,5,0,0.,1.2,12.,1.2,1.,1.2,0.,1.2
1979-03-08 22:27:45.240 ,5,0,0.,1.2,13.,1.2,1.,1.2,0.,1.2
1979-03-08 22:27:46.440 ,5,0,0.,1.2,9.,1.2,0.,1.2,0.,1.2
1979-03-08 22:27:47.640 ,5,0,0.,1.2,8.,1.2,0.,1.2,0.,1.2
1979-03-08 22:27:48.840 ,5,0,1.,1.2,17.,1.2,1.,1.2,0.,1.2
1979-03-08 22:27:50.040 ,5,0,0.,1.2,18.,1.2,0.,1.2,0.,1.2
1979-03-08 22:27:51.240 ,5,0,0.,1.2,12.,1.2,1.,1.2,0.,1.2
1979-03-08 22:27:52.440 ,5,0,0.,1.2,13.,1.2,0.,1.2,0.,1.2
1979-03-08 22:27:53.640 ,5,0,1.,1.2,14.,1.2,1.,1.2,1.,1.2
1979-03-08 22:27:54.840 ,5,0,0.,1.2,11.,1.2,0.,1.2,0.,1.2
1979-03-08 22:27:56.040 ,5,0,0.,1.2,16.,1.2,0.,1.2,0.,1.2
1979-03-08 22:27:57.240 ,4,0,0.,1.2,11.,1.2,0.,1.2,0.,1.2
1979-03-08 22:27:58.440 ,4,0,0.,1.2,7.,1.2,0.,1.2,0.,1.2
1979-03-08 22:27:59.640 ,4,0,0.,1.2,10.,1.2,1.,1.2,0.,1.2
1979-03-08 22:28:00.840 ,4,0,0.,1.2,22.,1.2,0.,1.2,1.,1.2
1979-03-08 22:28:02.040 ,4,0,1.,1.2,10.,1.2,0.,1.2,0.,1.2
1979-03-08 22:28:03.240 ,4,0,0.,1.2,26.,1.2,0.,1.2,1.,1.2
1979-03-08 22:28:04.440 ,4,0,0.,1.2,7.,1.2,0.,1.2,0.,1.2
1979-03-08 22:28:05.640 ,4,0,0.,1.2,12.,1.2,0.,1.2,0.,1.2
1979-03-08 22:28:06.840 ,4,0,0.,1.2,10.,1.2,0.,1.2,1.,1.2
1979-03-08 22:28:08.040 ,4,0,0.,1.2,14.,1.2,0.,1.2,1.,1.2
1979-03-08 22:28:09.240 ,4,0,0.,1.2,10.,1.2,0.,1.2,0.,1.2
1979-03-08 22:28:10.440 ,4,0,0.,1.2,14.,1.2,0.,1.2,0.,1.2
1979-03-08 22:28:11.640 ,4,0,1.,1.2,10.,1.2,0.,1.2,0.,1.2
1979-03-08 22:28:12.840 ,4,0,0.,1.2,12.,1.2,0.,1.2,1.,1.2
1979-03-08 22:28:14.040 ,4,0,0.,1.2,16.,1.2,0.,1.2,0.,1.2
1979-03-08 22:28:15.240 ,4,0,0.,1.2,16.,1.2,0.,1.2,0.,1.2
1979-03-08 22:28:16.440 ,4,0,1.,1.2,10.,1.2,1.,1.2,0.,1.2
1979-03-08 22:28:17.640 ,4,0,0.,1.2,7.,1.2,0.,1.2,0.,1.2
1979-03-08 22:28:18.840 ,4,0,0.,1.2,8.,1.2,0.,1.2,0.,1.2
1979-03-08 22:28:20.040 ,4,0,0.,1.2,10.,1.2,0.,1.2,0.,1.2
1979-03-08 22:28:21.240 ,3,0,0.,1.2,12.,1.2,1.,1.2,1.,1.2
1979-03-08 22:28:22.440 ,3,0,0.,1.2,8.,1.2,0.,1.2,0.,1.2
1979-03-08 22:28:23.640 ,3,0,0.,1.2,15.,1.2,0.,1.2,0.,1.2
1979-03-08 22:28:24.840 ,3,0,0.,1.2,20.,1.2,0.,1.2,0.,1.2
1979-03-08 22:28:26.040 ,3,0,0.,1.2,14.,1.2,0.,1.2,0.,1.2
1979-03-08 22:28:27.240 ,3,0,1.,1.2,26.,1.2,0.,1.2,0.,1.2
1979-03-08 22:28:28.440 ,3,0,0.,1.2,10.,1.2,0.,1.2,0.,1.2
1979-03-08 22:28:29.640 ,3,0,0.,1.2,8.,1.2,0.,1.2,0.,1.2
1979-03-08 22:28:30.840 ,3,0,1.,1.2,8.,1.2,1.,1.2,0.,1.2
1979-03-08 22:28:32.040 ,3,0,0.,1.2,7.,1.2,0.,1.2,0.,1.2
1979-03-08 22:28:33.240 ,3,0,1.,1.2,6.,1.2,0.,1.2,0.,1.2
1979-03-08 22:28:34.440 ,3,0,0.,1.2,6.,1.2,0.,1.2,0.,1.2
1979-03-08 22:28:35.640 ,3,0,0.,1.2,5.,1.2,0.,1.2,0.,1.2
1979-03-08 22:28:36.840 ,3,0,0.,1.2,6.,1.2,0.,1.2,0.,1.2
1979-03-08 22:28:38.040 ,3,0,0.,1.2,5.,1.2,1.,1.2,0.,1.2
1979-03-08 22:28:39.240 ,3,0,0.,1.2,4.,1.2,0.,1.2,0.,1.2
1979-03-08 22:28:40.440 ,3,0,0.,1.2,4.,1.2,0.,1.2,0.,1.2
1979-03-08 22:28:41.640 ,3,0,0.,1.2,8.,1.2,1.,1.2,0.,1.2
1979-03-08 22:28:42.840 ,3,0,0.,1.2,2.,1.2,1.,1.2,1.,1.2
1979-03-08 22:28:44.040 ,3,0,0.,1.2,11.,1.2,0.,1.2,0.,1.2
1979-03-08 22:28:45.240 ,2,0,0.,1.2,8.,1.2,0.,1.2,0.,1.2
1979-03-08 22:28:46.440 ,2,0,0.,1.2,3.,1.2,0.,1.2,0.,1.2
1979-03-08 22:28:47.640 ,2,0,0.,1.2,7.,1.2,0.,1.2,0.,1.2
1979-03-08 22:28:48.840 ,2,0,0.,1.2,3.,1.2,0.,1.2,0.,1.2
1979-03-08 22:28:50.040 ,2,0,0.,1.2,9.,1.2,0.,1.2,0.,1.2
1979-03-08 22:28:51.240 ,2,0,0.,1.2,21.,1.2,0.,1.2,0.,1.2
1979-03-08 22:28:52.440 ,2,0,0.,1.2,9.,1.2,1.,1.2,0.,1.2
1979-03-08 22:28:53.640 ,2,0,0.,1.2,13.,1.2,0.,1.2,0.,1.2
1979-03-08 22:28:54.840 ,2,0,1.,1.2,19.,1.2,0.,1.2,0.,1.2
1979-03-08 22:28:56.040 ,2,0,0.,1.2,7.,1.2,0.,1.2,0.,1.2
1979-03-08 22:28:57.240 ,2,0,0.,1.2,10.,1.2,1.,1.2,0.,1.2
1979-03-08 22:28:58.440 ,2,0,0.,1.2,14.,1.2,0.,1.2,0.,1.2
1979-03-08 22:28:59.640 ,2,0,0.,1.2,13.,1.2,0.,1.2,1.,1.2
1979-03-08 22:29:00.840 ,2,0,0.,1.2,9.,1.2,0.,1.2,0.,1.2
1979-03-08 22:29:02.040 ,2,0,0.,1.2,11.,1.2,0.,1.2,0.,1.2
1979-03-08 22:29:03.240 ,2,0,0.,1.2,16.,1.2,0.,1.2,0.,1.2
1979-03-08 22:29:04.440 ,2,0,0.,1.2,14.,1.2,0.,1.2,0.,1.2
1979-03-08 22:29:05.640 ,2,0,0.,1.2,15.,1.2,0.,1.2,0.,1.2
1979-03-08 22:29:06.840 ,2,0,0.,1.2,11.,1.2,0.,1.2,0.,1.2
1979-03-08 22:29:08.040 ,2,0,0.,1.2,11.,1.2,0.,1.2,0.,1.2
1979-03-08 22:29:09.240 ,1,0,0.,1.2,8.,1.2,0.,1.2,0.,1.2
1979-03-08 22:29:10.440 ,1,0,1.,1.2,9.,1.2,0.,1.2,0.,1.2
1979-03-08 22:29:11.640 ,1,0,0.,1.2,18.,1.2,0.,1.2,0.,1.2
1979-03-08 22:29:12.840 ,1,0,0.,1.2,12.,1.2,0.,1.2,0.,1.2
1979-03-08 22:29:14.040 ,1,0,2.,1.2,14.,1.2,0.,1.2,0.,1.2
1979-03-08 22:29:15.240 ,1,0,1.,1.2,24.,1.2,0.,1.2,0.,1.2
1979-03-08 22:29:16.440 ,1,0,0.,1.2,16.,1.2,0.,1.2,0.,1.2
1979-03-08 22:29:17.640 ,1,0,0.,1.2,12.,1.2,0.,1.2,0.,1.2
1979-03-08 22:29:18.840 ,1,0,1.,1.2,8.,1.2,0.,1.2,0.,1.2
1979-03-08 22:29:20.040 ,1,0,1.,1.2,11.,1.2,0.,1.2,0.,1.2
1979-03-08 22:29:21.240 ,1,0,0.,1.2,14.,1.2,0.,1.2,0.,1.2
1979-03-08 22:29:22.440 ,1,0,0.,1.2,14.,1.2,0.,1.2,0.,1.2
1979-03-08 22:29:23.640 ,1,0,0.,1.2,14.,1.2,0.,1.2,1.,1.2
1979-03-08 22:29:24.840 ,1,0,0.,1.2,10.,1.2,0.,1.2,0.,1.2
1979-03-08 22:29:26.040 ,1,0,0.,1.2,12.,1.2,0.,1.2,0.,1.2
1979-03-08 22:29:27.240 ,1,0,0.,1.2,9.,1.2,0.,1.2,1.,1.2
1979-03-08 22:29:28.440 ,1,0,0.,1.2,6.,1.2,0.,1.2,0.,1.2
1979-03-08 22:29:29.640 ,1,0,0.,1.2,7.,1.2,0.,1.2,0.,1.2
1979-03-08 22:29:30.840 ,1,0,0.,1.2,9.,1.2,1.,1.2,0.,1.2
1979-03-08 22:29:32.040 ,1,0,1.,1.2,5.,1.2,0.,1.2,0.,1.2
1979-03-08 22:29:33.240 ,0,0,1.,1.2,16.,1.2,0.,1.2,0.,1.2
1979-03-08 22:29:34.440 ,0,0,1.,1.2,8.,1.2,0.,1.2,1.,1.2
1979-03-08 22:29:35.640 ,0,0,0.,1.2,10.,1.2,0.,1.2,0.,1.2
1979-03-08 22:29:36.840 ,0,0,0.,1.2,9.,1.2,0.,1.2,0.,1.2
1979-03-08 22:29:38.040 ,0,0,2.,1.2,11.,1.2,0.,1.2,0.,1.2
1979-03-08 22:29:39.240 ,0,0,0.,1.2,33.,1.2,0.,1.2,0.,1.2
1979-03-08 22:29:40.440 ,0,0,0.,1.2,11.,1.2,0.,1.2,0.,1.2
1979-03-08 22:29:41.640 ,0,0,0.,1.2,7.,1.2,0.,1.2,0.,1.2
1979-03-08 22:29:42.840 ,0,0,0.,1.2,18.,1.2,0.,1.2,1.,1.2
1979-03-08 22:29:44.040 ,0,0,0.,1.2,8.,1.2,0.,1.2,1.,1.2
1979-03-08 22:29:45.240 ,0,0,0.,1.2,14.,1.2,0.,1.2,0.,1.2
1979-03-08 22:29:46.440 ,0,0,0.,1.2,15.,1.2,0.,1.2,0.,1.2
1979-03-08 22:29:47.640 ,0,0,0.,1.2,15.,1.2,1.,1.2,0.,1.2
1979-03-08 22:29:48.840 ,0,0,0.,1.2,10.,1.2,0.,1.2,0.,1.2
1979-03-08 22:29:50.040 ,0,0,1.,1.2,16.,1.2,0.,1.2,0.,1.2
1979-03-08 22:29:51.240 ,0,0,1.,1.2,9.,1.2,0.,1.2,0.,1.2
1979-03-08 22:29:52.440 ,0,0,0.,1.2,13.,1.2,0.,1.2,0.,1.2
1979-03-08 22:29:53.640 ,0,0,1.,1.2,8.,1.2,1.,1.2,1.,1.2
1979-03-08 22:29:54.840 ,0,0,0.,1.2,11.,1.2,0.,1.2,0.,1.2
1979-03-08 22:29:56.040 ,0,0,0.,1.2,9.,1.2,0.,1.2,0.,1.2
1979-03-08 22:29:57.240 ,0,0,0.,1.2,14.,1.2,0.,1.2,0.,1.2
1979-03-08 22:29:58.440 ,0,0,1.,1.2,12.,1.2,0.,1.2,0.,1.2
1979-03-08 22:29:59.640 ,0,0,0.,1.2,12.,1.2,0.,1.2,1.,1.2
1979-03-08 22:30:00.840 ,0,0,0.,1.2,9.,1.2,0.,1.2,1.,1.2
1979-03-08 22:30:02.040 ,0,0,0.,1.2,19.,1.2,1.,1.2,1.,1.2
1979-03-08 22:30:03.240 ,0,0,0.,1.2,7.,1.2,0.,1.2,0.,1.2
1979-03-08 22:30:04.440 ,0,0,1.,1.2,4.,1.2,0.,1.2,0.,1.2
1979-03-08 22:30:05.640 ,0,0,1.,1.2,13.,1.2,0.,1.2,0.,1.2
1979-03-08 22:30:06.840 ,0,0,0.,1.2,9.,1.2,0.,1.2,0.,1.2
1979-03-08 22:30:08.040 ,0,0,0.,1.2,13.,1.2,0.,1.2,0.,1.2
1979-03-08 22:30:09.240 ,0,0,1.,1.2,8.,1.2,0.,1.2,0.,1.2
1979-03-08 22:30:10.440 ,0,0,0.,1.2,14.,1.2,0.,1.2,0.,1.2
1979-03-08 22:30:11.640 ,0,0,1.,1.2,5.,1.2,0.,1.2,0.,1.2
1979-03-08 22:30:12.840 ,0,0,1.,1.2,9.,1.2,1.,1.2,0.,1.2
1979-03-08 22:30:14.040 ,0,0,0.,1.2,10.,1.2,0.,1.2,0.,1.2
1979-03-08 22:30:15.240 ,0,0,0.,1.2,11.,1.2,0.,1.2,0.,1.2
1979-03-08 22:30:16.440 ,0,0,0.,1.2,17.,1.2,0.,1.2,0.,1.2
1979-03-08 22:30:17.640 ,0,0,1.,1.2,12.,1.2,0.,1.2,0.,1.2
1979-03-08 22:30:18.840 ,0,0,0.,1.2,13.,1.2,0.,1.2,0.,1.2
1979-03-08 22:30:20.040 ,0,0,0.,1.2,7.,1.2,0.,1.2,0.,1.2
1979-03-08 22:30:21.240 ,1,0,1.,1.2,11.,1.2,0.,1.2,0.,1.2
1979-03-08 22:30:22.440 ,1,0,0.,1.2,10.,1.2,0.,1.2,0.,1.2
1979-03-08 22:30:23.640 ,1,0,0.,1.2,19.,1.2,0.,1.2,0.,1.2
1979-03-08 22:30:24.840 ,1,0,1.,1.2,18.,1.2,0.,1.2,0.,1.2
1979-03-08 22:30:26.040 ,1,0,0.,1.2,8.,1.2,0.,1.2,0.,1.2
1979-03-08 22:30:27.240 ,1,0,0.,1.2,22.,1.2,0.,1.2,0.,1.2
1979-03-08 22:30:28.440 ,1,0,0.,1.2,16.,1.2,0.,1.2,0.,1.2
1979-03-08 22:30:29.640 ,1,0,1.,1.2,16.,1.2,0.,1.2,0.,1.2
1979-03-08 22:30:30.840 ,1,0,0.,1.2,7.,1.2,0.,1.2,0.,1.2
1979-03-08 22:30:32.040 ,1,0,0.,1.2,13.,1.2,0.,1.2,0.,1.2
1979-03-08 22:30:33.240 ,1,0,0.,1.2,9.,1.2,0.,1.2,0.,1.2
1979-03-08 22:30:34.440 ,1,0,0.,1.2,14.,1.2,0.,1.2,0.,1.2
1979-03-08 22:30:35.640 ,1,0,0.,1.2,17.,1.2,0.,1.2,0.,1.2
1979-03-08 22:30:36.840 ,1,0,0.,1.2,7.,1.2,0.,1.2,1.,1.2
1979-03-08 22:30:38.040 ,1,0,0.,1.2,16.,1.2,1.,1.2,0.,1.2
1979-03-08 22:30:39.240 ,1,0,0.,1.2,7.,1.2,1.,1.2,0.,1.2
1979-03-08 22:30:40.440 ,1,0,0.,1.2,14.,1.2,0.,1.2,0.,1.2
1979-03-08 22:30:41.640 ,1,0,1.,1.2,13.,1.2,0.,1.2,0.,1.2
1979-03-08 22:30:42.840 ,1,0,0.,1.2,12.,1.2,0.,1.2,0.,1.2
1979-03-08 22:30:44.040 ,1,0,0.,1.2,15.,1.2,0.,1.2,0.,1.2
1979-03-08 22:30:45.240 ,2,0,0.,1.2,14.,1.2,0.,1.2,2.,1.2
1979-03-08 22:30:46.440 ,2,0,1.,1.2,12.,1.2,0.,1.2,0.,1.2
1979-03-08 22:30:47.640 ,2,0,0.,1.2,14.,1.2,0.,1.2,0.,1.2
1979-03-08 22:30:48.840 ,2,0,0.,1.2,18.,1.2,0.,1.2,0.,1.2
1979-03-08 22:30:50.040 ,2,0,0.,1.2,16.,1.2,0.,1.2,0.,1.2
1979-03-08 22:30:51.240 ,2,0,1.,1.2,13.,1.2,0.,1.2,1.,1.2
1979-03-08 22:30:52.440 ,2,0,0.,1.2,11.,1.2,0.,1.2,0.,1.2
1979-03-08 22:30:53.640 ,2,0,0.,1.2,13.,1.2,0.,1.2,1.,1.2
1979-03-08 22:30:54.840 ,2,0,1.,1.2,12.,1.2,0.,1.2,0.,1.2
1979-03-08 22:30:56.040 ,2,0,0.,1.2,17.,1.2,0.,1.2,0.,1.2
1979-03-08 22:30:57.240 ,2,0,0.,1.2,11.,1.2,0.,1.2,0.,1.2
1979-03-08 22:30:58.440 ,2,0,0.,1.2,13.,1.2,0.,1.2,0.,1.2
1979-03-08 22:30:59.640 ,2,0,1.,1.2,14.,1.2,0.,1.2,1.,1.2
1979-03-08 22:31:00.840 ,2,0,0.,1.2,15.,1.2,0.,1.2,0.,1.2
1979-03-08 22:31:02.040 ,2,0,0.,1.2,11.,1.2,0.,1.2,0.,1.2
1979-03-08 22:31:03.240 ,2,0,0.,1.2,10.,1.2,0.,1.2,0.,1.2
1979-03-08 22:31:04.440 ,2,0,1.,1.2,15.,1.2,0.,1.2,0.,1.2
1979-03-08 22:31:05.640 ,2,0,0.,1.2,15.,1.2,0.,1.2,1.,1.2
1979-03-08 22:31:06.840 ,2,0,0.,1.2,8.,1.2,0.,1.2,0.,1.2
1979-03-08 22:31:08.040 ,2,0,0.,1.2,8.,1.2,0.,1.2,0.,1.2
1979-03-08 22:31:09.240 ,3,0,1.,1.2,8.,1.2,0.,1.2,0.,1.2
1979-03-08 22:31:10.440 ,3,0,1.,1.2,8.,1.2,0.,1.2,1.,1.2
1979-03-08 22:31:11.640 ,3,0,2.,1.2,11.,1.2,1.,1.2,0.,1.2
1979-03-08 22:31:12.840 ,3,0,0.,1.2,20.,1.2,1.,1.2,0.,1.2
1979-03-08 22:31:14.040 ,3,0,0.,1.2,7.,1.2,1.,1.2,0.,1.2
1979-03-08 22:31:15.240 ,3,0,0.,1.2,18.,1.2,0.,1.2,1.,1.2
1979-03-08 22:31:16.440 ,3,0,0.,1.2,2.,1.2,0.,1.2,1.,1.2
1979-03-08 22:31:17.640 ,3,0,0.,1.2,5.,1.2,0.,1.2,1.,1.2